Regional Weather Roundup
Issued by NWS

Home | Current Version | Previous Version | Text Only | Print | Product List | Glossary Off
Versions: 1 2 3 4 5 6 7 8 9 10 11 12 13 14 15 16 17 18 19 20 21 22 23 24 25 26 27

000
ASUS45 KBOU 180907
RWRCO

WEATHER ROUNDUP FOR COLORADO
NATIONAL WEATHER SERVICE DENVER/BOULDER CO
300 AM MDT FRI AUG 18 2017

NOTE: "FAIR" INDICATES FEW OR NO CLOUDS BELOW 12000 FEET WITH NO
SIGNIFICANT WEATHER AND/OR OBSTRUCTIONS TO VISIBILITY.

COZ001>005-013-030-031-181000-
...NORTHWEST COLORADO...

CITY           SKY/WX    TMP DP  RH WIND       PRES   REMARKS
CRAIG          FAIR      49  36  61 CALM      30.26S
HAYDEN         FAIR      53  40  61 SE7       30.29S
MEEKER         FAIR      54  40  59 NE6       30.28S
RABBIT EARS PA FAIR      46  34  61 SW3       30.53S
STEAMBOAT SPGS FAIR      52  40  64 E5        30.30S
WALDEN         FAIR      41  32  70 SE9       30.38S
$$

COZ006>008-011-181000-
...WEST CENTRAL VALLEYS...

CITY           SKY/WX    TMP DP  RH WIND       PRES   REMARKS
GRAND JUNCTION FAIR      65  38  36 E6        30.15R
MONTROSE       FAIR      60  38  43 SE10      30.25R
EAGLE          CLOUDY    52  36  54 CALM      30.34R
RIFLE          FAIR      57  37  47 E5        30.23R
DELTA          FAIR      60  38  43 E3        30.20S
NUCLA          FAIR      55  32  41 E10       30.27S
$$

COZ017>023-064>068-181000-
...SOUTHWEST COLORADO...

CITY           SKY/WX    TMP DP  RH WIND       PRES   REMARKS
DURANGO        FAIR      52  34  50 CALM      30.29S
CORTEZ         FAIR      50  35  56 E6        30.24S
PAGOSA SPRINGS FAIR      48  33  55 CALM      30.36F
TELLURIDE      FAIR      50  32  50 E3        30.49S
WOLF CREEK PAS FAIR      46  27  46 NW3       30.70F
$$

COZ009-010-012-014-032>034-037-058>063-181000-
...CENTRAL COLORADO...

CITY           SKY/WX    TMP DP  RH WIND       PRES   REMARKS
ASPEN          CLOUDY    52  37  56 S6        30.37S
BUENA VISTA    FAIR      46  35  67 N3        30.40S
COPPER MTN     FAIR      45  30  57 W9        30.64F
BERTHOUD PASS  FAIR      37  34  87 NW20G28   30.66R
COTTONWOOD PAS FAIR      55  28  35 W10       30.51F
GUNNISON       FAIR      44  36  73 N3        30.42S
KREMMLING      FAIR      46  39  76 CALM      30.37R
LEADVILLE      FAIR      38  31  76 CALM      30.50F
SALIDA         FAIR      52  38  59 W5        30.45S
SUNLIGHT       FAIR      50  28  43 N3        30.60S
WILKERSON PASS FAIR      46  30  53 W5        30.62F
$$

COZ069>075-181000-
...SAN LUIS VALLEY/SANGRE DE CRISTO MOUNTAINS...

CITY           SKY/WX    TMP DP  RH WIND       PRES   REMARKS
ALAMOSA        FAIR      49  39  68 CALM      30.35S
DEL NORTE      FAIR      52  35  53 W10       30.40S
LA VETA PASS   NOT AVBL
SAGUACHE       FAIR      50  34  53 NW10      30.39S
$$

COZ035-036-038>040-181000-
...NORTHERN COLORADO FRONT RANGE...

CITY           SKY/WX    TMP DP  RH WIND       PRES   REMARKS
DENVER INTL AP FAIR      63  42  46 W6        30.16R
DMNS CITY PARK   N/A     61  43  51 N9        30.18R
AURORA         CLEAR     60  43  54 SW6       30.19R
FRONT RANGE AP FAIR      63  43  48 W8        30.18S
ERIE MUNI ARPT FAIR      57  47  68 CALM      30.22R
BOULDER MUN AP FAIR      61  39  44 SW3       30.17S
CENTENNIAL     FAIR      62  39  42 W10       30.20R
BROOMFIELD     NOT AVBL
FORT COLLINS   FAIR      62  47  57 NE7       30.17R
LONGMONT       FAIR      58  47  66 CALM      30.18R
$$

COZ041-046-047-076>085-087-088-181000-
...PIKES PEAK/PALMER DIVIDE AND SOUTHERN FOOTHILLS...

CITY           SKY/WX    TMP DP  RH WIND       PRES   REMARKS
COLO. SPRINGS  FAIR      60  42  51 N7        30.22F
A. F. ACADEMY  FAIR      55  40  56 NE6       30.24S
SCHRIEVER AFB  FAIR      57  42  57 NW3       30.22S
CHEYENNE MTN   FAIR      70  29  22 W10       30.21F
ELLICOTT       FAIR       1 N/A N/A CALM      30.20F
FALCON         FAIR      59  37  43 NW9       30.26F
FORT CARSON    FAIR      56  43  60 N10       30.18F
LIMON          FAIR      51  49  92 N8        30.15R
MONUMENT HILL  FAIR      54  37  54 W8        30.29S
CANON CITY     CLEAR     66  43  42 W15       30.17S
WALSENBURG     FAIR      63  39  42 W10       30.21S
TRINIDAD       FAIR      61  43  51 W18       30.18F
$$

COZ042>045-048>051-090-091-181000-
...NORTHEAST COLORADO...

CITY           SKY/WX    TMP DP  RH WIND       PRES   REMARKS
GREELEY ARPT   FAIR      57  51  80 W5        30.16R
AKRON          FAIR      58  48  69 N12       30.09F
BURLINGTON     FAIR      59  58  96 S9        30.06F
WRAY           NOT AVBL
YUMA           FAIR      57  50  77 NE3       30.07S
STERLING       FAIR      55  52  88 N8        30.07F
HOLYOKE        FAIR      61  54  77 W6        30.05R
FORT MORGAN    FAIR      60  46  59 N13       30.11S
$$

COZ086-089-092>099-181000-
...SOUTHEAST COLORADO...

CITY           SKY/WX    TMP DP  RH WIND       PRES   REMARKS
PUEBLO         FAIR      60  48  64 W10       30.12S
LA JUNTA       FAIR      62  52  69 SW7       30.08S
LAMAR          FAIR      59  55  87 SW9       30.03S
SPRINGFIELD      N/A     62  61  96 S16       30.08S
$$




USA.gov is the U.S. government's official web portal to all federal, state and local government web resources and services.